Retour au catalogue

COSMOS 1293

ActifMilitaireLEO
NORAD 12642·PAYLOAD·🇷🇺 Russia

Lancé Aug 6, 1981 depuis Plesetsk Cosmodrome

Loading…

Prochains Passages (prochaines 24 heures)

TLE

FraisSource: Space-Track

Époque: Sep 14, 2026, 14:46 UTC

1 12642U 81074G   26257.61563638  .00000000  00000-0  94954-4 0  9990
2 12642  74.0332 301.4828 0036355 224.3834 303.8851 12.56721125 69308

Suivez COSMOS 1293 en temps réel avec AllMySat

Download on the App Store